User: anonymous   Login
Location: Habighorst
(52.7089°N, 10.2278°E)
Time: 23:28:57
(UTC+00:00)
Language:

CZ-2C R/B - Orbit

View from above orbital plane
View from above orbital plane
View from above satellite
View from above satellite

Ground track
Ground track

The orbit is defined by the following mean orbital elements,

1 36089U          26065.38702727 +.00000000 +00000-0 +21752-3 0 00004
2 36089  98.4474  42.4072 0077957 356.7276   3.3399 14.52323420    07
Epoch (UTC): 06 March 2026 09:17:19
Eccentricity: 0.0077957
inclination: 98.4474°
perigee height: 663 km
apogee height: 773 km
right ascension of ascending node: 42.4072°
argument of perigee: 356.7276°
revolutions per day: 14.52323420
mean anomaly at epoch: 3.3399°

The dashed part of the orbit path shows where the satellite is in the earth's shadow,  

DLR